Flag for Switzerland Weather past 2 weeks in Martigny, Valais, Switzerland

Now
65 °F

Mild.


Feels Like: 65 °F
Forecast: 47 / 82 °F
Wind: 3 mph from Southwest

Location: Sion

Current Time: May 28, 2015 at 11:02:17 PM

Latest Report: May 28, 2015 at 10:00 PM


Visibility: N/A

Pressure: 29.96 "Hg

Humidity: 33%

Dew point: 35 °F

Location of MartignyLocation

Historic Weather in Martigny — Graph

°F

Martigny temperature yesterday

Maximum temperature yesterday: 71 °F (at 4:00 PM)
Minimum temperature yesterday: 47 °F (at 5:00 AM)
Average temperature yesterday: 59 °F

Past Weeks' High & Low Weather Summary

 TemperatureHumidityPressure
High79 °F (May 13, 10:00 PM)95% (May 16, 3:00 AM)30.30 "Hg (May 16, 3:00 AM)
Low39 °F (May 16, 4:00 AM)19% (May 28, 5:00 PM)29.67 "Hg (May 14, 5:00 PM)
Average59 °F59%30.00 "Hg
* Reported May 13 9:00 PM — May 28 9:00 PM, Martigny, Weather by CustomWeather, © 2015

Note: Actual official high and low records may vary slightly from our data, if they occured in-between our weather recording intervals... More about our weather records

Advertising

Martigny weather history for previous 24 hours

 ConditionsComfort  
Time TempWeatherWind HumidityBarometerVisibility
9:00 PM
Thu, May 28
68 °FMild.7 mph28%29.94 "HgN/A
8:00 PM70 °FSunny.9 mph27%29.92 "Hg19 mi
7:00 PM74 °FMild.16 mph22%29.89 "HgN/A
6:00 PM75 °FMild.20 mph20%29.89 "HgN/A
5:00 PM76 °FSunny.17 mph19%29.90 "Hg19 mi
4:00 PM75 °FMild.17 mph20%29.92 "HgN/A
3:00 PM75 °FMild.15 mph25%29.94 "HgN/A
2:00 PM72 °FScattered clouds.10 mph30%29.97 "Hg19 mi
1:00 PM69 °FMild.8 mph34%30.00 "HgN/A
12:00 PM67 °FMild.3 mph35%30.03 "HgN/A
11:00 AM64 °FMild.3 mph39%30.07 "HgN/A
10:00 AM60 °FRefreshingly cool.2 mph44%30.10 "HgN/A
9:00 AM56 °FRefreshingly cool.5 mph55%30.14 "HgN/A
8:00 AM52 °FScattered clouds.5 mph62%30.16 "Hg16 mi
7:00 AM48 °FCool.2 mph71%30.18 "HgN/A
6:00 AM45 °FQuite cool.2 mph83%30.19 "HgN/A
5:00 AM45 °FClear.1 mph82%30.18 "Hg12 mi
4:00 AM47 °FCool.3 mph75%30.16 "HgN/A
3:00 AM50 °FCool.2 mph66%30.16 "HgN/A
2:00 AM49 °FClear.3 mph74%30.17 "Hg12 mi
1:00 AM51 °FCool.1 mph72%30.16 "HgN/A
12:00 AM52 °FCool.2 mph65%30.14 "HgN/A
11:00 PM
Wed, May 27
58 °FClear.3 mph51%30.10 "Hg12 mi
Weather by CustomWeather, © 2015

See weather overviewHow to use our weather pages